[[{"header":{"parameterUnit":"m.s-1","parameterCategory":1,"la1":30.2991,"la2":30.254,"lo1":-89.0895,"lo2":-89.0444,"dy":0.0017,"dx":0.0017,"nx":28,"ny":28,"refTime":"2024-02-29T09:00:00:Z","depth":0,"parameterNumber":2,"parameterNumberName":"U-component_of_WINDS"},"data":[0,0,0,0,0,0,0,0,0,0,0,0,0,0,0,0,0,0,0,0,0,0,0,0,0,0,0,0,0,0,0,0,0,0,0,0,0,0,0,0,0,0,0,0,0,0,0,0,0,0,0,0,0,0,0,0,0,0,-4.8185,-4.8185,0,-4.8208,-4.8208,-4.8208,-4.8072,-4.8068,-4.8064,-4.806,-4.8087,-4.8091,-4.8095,0,0,0,0,0,0,0,0,0,0,0,0,0,-4.8024,-4.8028,-4.8185,-4.8185,-4.8185,-4.8208,-4.8208,-4.8209,-4.8072,-4.8068,-4.8063,-4.8058,-4.8085,-4.809,-4.8095,0,0,0,0,0,0,0,0,0,0,0,0,0,-4.8075,-4.8029,-4.8185,-4.812,-4.8115,-4.8208,-4.8208,-4.8209,-4.8073,-4.8068,-4.8062,-4.8056,-4.8083,-4.809,-4.8096,-4.8253,0,0,-4.8116,-4.8119,0,0,0,0,0,0,0,0,-4.8073,-4.8081,-4.8129,-4.8125,-4.8119,-4.8131,-4.8161,-4.8224,-4.8075,-4.8089,-4.806,-4.8053,-4.8106,-4.811,-4.8128,-4.8255,-4.8256,-4.8117,-4.8121,-4.8123,-4.8125,0,0,0,0,0,0,0,-4.8069,-4.808,-4.8194,-4.813,-4.8124,-4.809,-4.8091,-4.8172,-4.813,-4.8087,-4.8078,-4.8082,-4.8102,-4.8122,-4.8127,-4.8256,-4.8116,-4.8122,-4.8126,-4.8129,-4.8512,-4.8518,0,0,0,0,0,0,-4.8074,-4.8078,-4.8193,-4.8195,-4.8081,-4.8098,-4.8099,-4.8133,-4.8129,-4.8123,-4.8087,-4.8076,-4.8114,-4.812,-4.8128,-4.8311,-4.8123,-4.8129,-4.8133,-4.8506,-4.8514,-4.8521,0,0,0,0,0,0,-4.8071,-4.8086,-4.8192,-4.8133,-4.8144,-4.8107,-4.8146,-4.8136,-4.8156,-4.8129,-4.8121,-4.8115,-4.8109,-4.8119,-4.8223,-4.831,-4.8132,-4.8138,-4.8499,-4.8509,-4.8517,-4.868,0,0,0,0,0,0,-4.8067,-4.8085,-4.8145,-4.8136,-4.8148,-4.8287,-4.8152,-4.8141,-4.8167,-4.8152,-4.8153,-4.8147,-4.8105,-4.8214,-4.8229,-4.8316,-4.8143,-4.8491,-4.8503,-4.8514,-4.8667,-4.8694,-4.8717,0,0,0,0,0,-4.8062,-4.8191,-4.8148,-4.8163,-4.8221,-4.8293,-4.83,-4.8248,-4.8175,-4.8234,-4.8216,-4.8147,-4.8298,-4.8226,-4.8242,-4.8332,-4.8485,-4.85,-4.8513,-4.8656,-4.8689,-4.8717,0,0,0,0,0,0,-4.8212,-4.8188,-4.8141,-4.8271,-4.8285,-4.8269,-4.8343,-4.8285,-4.8321,-4.8306,-4.8241,-4.8242,-4.8358,-4.8355,-4.8275,-4.8483,-4.8379,-4.8397,-4.8481,-4.8513,-4.8537,-4.8536,-4.8149,0,0,0,0,0,-4.826,-4.8319,-4.8295,-4.8412,-4.8421,-4.8381,-4.841,-4.8369,-4.8381,-4.8387,-4.8377,-4.8392,-4.8442,-4.8477,-4.8522,-4.8665,-4.8664,-4.8735,-4.876,-4.8781,-4.8798,-4.8873,-4.8905,-4.8567,-4.8567,-4.8567,0,0,-4.836,-4.8354,-4.8396,-4.8442,-4.8448,-4.8511,-4.8387,-4.8459,-4.8506,-4.8398,-4.8495,-4.8489,-4.8501,-4.8626,-4.868,-4.8627,-4.8891,-4.8799,-4.8816,-4.8822,-4.8891,-4.8923,-4.8952,-4.8577,-4.8575,-4.8573,0,0,-4.8575,-4.8577,-4.8674,-4.8682,-4.8691,-4.8664,-4.8687,-4.868,-4.8671,-4.8768,-4.8688,-4.8742,-4.8831,-4.8843,-4.8861,-4.9079,-4.9016,-4.9095,-4.9228,-4.9302,-4.9328,-4.9352,-4.943,-4.9459,-4.9112,-4.9112,-4.9112,0,-4.8699,-4.879,-4.8731,-4.8808,-4.8831,-4.8735,-4.8833,-4.8843,-4.8868,-4.8886,-4.8826,-4.8934,-4.8936,-4.9062,-4.9115,-4.9132,-4.9157,-4.9096,-4.9329,-4.9352,-4.9373,-4.9447,-4.9476,-4.9122,-4.9121,-4.912,-4.9119,0,-4.8942,-4.9006,-4.9083,-4.9109,-4.9139,-4.9227,-4.9181,-4.922,-4.9176,-4.9155,-4.9254,-4.9252,-4.9295,-4.9322,-4.928,-4.9442,-4.9408,-4.934,-4.9233,-4.9416,-4.9484,-4.9512,-4.9135,-4.9132,-4.9129,-4.9127,0,0,-4.9254,-4.9244,-4.9273,-4.9283,-4.9286,-4.9335,-4.9418,-4.9458,-4.9493,-4.9513,-4.9581,-4.9657,-4.9593,-4.9614,-4.9572,-4.9637,-4.981,-4.956,-4.956,-4.9607,-4.9989,-5.0041,-5.0075,-4.9768,-4.9773,-4.9777,-4.9988,0,-4.9464,-4.9604,-4.9553,-4.9697,-4.9756,-4.9664,-4.9736,-4.9746,-4.9729,-4.9776,-4.9756,-4.9811,-4.9723,-4.9734,-4.9794,-4.9777,-4.9886,-4.9761,-4.9832,-4.9835,-4.9833,-5.011,-5.0166,-5.0364,-5.0014,-5.0018,-5.0022,0,-4.9729,-4.9758,-4.9908,-4.99,-4.9922,-4.9988,-5.0021,-5.0067,-5.0076,-5.0059,-5.0081,-5.0025,-5.0106,-4.9999,-5.011,-5.0025,-5.0051,-5.0047,-5.0053,-5.0059,-4.994,-5.0124,-5.0426,-5.0457,-5.0063,-5.006,-5.0057,0,-4.9942,-5.0019,-5.0118,-5.0129,-5.0122,-5.017,-5.017,-5.0173,-5.02,-5.0229,-5.0246,-5.0285,-5.0306,-5.0337,-5.0293,-5.0219,-5.0411,-5.03,-5.0399,-5.0401,-5.0445,-5.0443,-5.0757,-5.046,-5.046,-5.0459,-5.0459,0,-5.0183,-5.0278,-5.0213,-5.0275,-5.0379,-5.0318,-5.0423,-5.0412,-5.0416,-5.0474,-5.0397,-5.0453,-5.0391,-5.0442,-5.0408,-5.0505,-5.0515,-5.0503,-5.0494,-5.0511,-5.0513,-5.0528,-5.0513,-5.0467,-5.0465,-5.0464,-5.0463,0,-5.0439,-5.04,-5.0502,-5.0486,-5.0484,-5.0562,-5.0548,-5.0604,-5.058,-5.0654,-5.0668,-5.0631,-5.0686,-5.0645,-5.07,-5.0677,-5.0805,-5.0776,-5.0802,-5.0794,-5.0896,-5.0888,-5.1232,-5.1274,-5.095,-5.0953,-5.0956,0,-5.0596,-5.0667,-5.0658,-5.0691,-5.0695,-5.0749,-5.0776,-5.0719,-5.075,-5.0765,-5.082,-5.0868,-5.0904,-5.0997,-5.0975,-5.1017,-5.0988,-5.1105,-5.0994,-5.1009,-5.099,-5.0987,-5.0994,-5.1129,-5.1133,-5.1136,-5.1138,0,-5.0879,-5.0855,-5.0897,-5.0932,-5.0966,-5.0991,-5.101,-5.1041,-5.0983,-5.1022,-5.1077,-5.1105,-5.116,-5.1209,-5.1243,-5.1242,-5.1182,-5.1173,-5.1198,-5.1218,-5.123,-5.1225,-5.0865,-5.1166,-5.1163,-5.1161,-5.116,-5.1158,-5.1091,-5.1149,-5.1152,-5.1201,-5.1208,-5.1227,-5.1279,-5.1261,-5.1305,-5.1345,-5.1308,-5.1375,-5.1381,-5.1419,-5.1427,-5.1478,-5.143,-5.1466,-5.1476,-5.1486,-5.1501,-5.1221,-5.1484,-5.1483,-5.1482,-5.1482,-5.1481,0,-5.137,-5.1366,-5.1412,-5.144,-5.1478,-5.1415,-5.1432,-5.1469,-5.1528,-5.1539,-5.1575,-5.1638,-5.1685,-5.1666,-5.1708,-5.1753,-5.1726,-5.1766,-5.1762,-5.1763,-5.1541,-5.1516,-5.1787,-5.1787,-5.1787,-5.1787,-5.1786,-5.1786,-5.152,-5.1615,-5.1592,-5.1691,-5.1686,-5.175,-5.1765,-5.1782,-5.179,-5.1864,-5.1902,-5.1889,-5.1888,-5.1929,-5.1969,-5.1962,-5.1982,-5.2032,-5.2016,-5.1809,-5.1779,-5.175,-5.1726,-5.2037,-5.2037,-5.2233,-5.2235,-5.2237]},{"header":{"parameterUnit":"m.s-1","parameterCategory":1,"la1":30.2991,"la2":30.254,"lo1":-89.0895,"lo2":-89.0444,"dy":0.0017,"dx":0.0017,"nx":28,"ny":28,"refTime":"2024-02-29T09:00:00:Z","depth":0,"parameterNumber":3,"parameterNumberName":"V-component_of_WINDS"},"data":[0,0,0,0,0,0,0,0,0,0,0,0,0,0,0,0,0,0,0,0,0,0,0,0,0,0,0,0,0,0,0,0,0,0,0,0,0,0,0,0,0,0,0,0,0,0,0,0,0,0,0,0,0,0,0,0,0,0,-1.1315,-1.1316,0,-1.1384,-1.1385,-1.1386,-1.1421,-1.1421,-1.1421,-1.1421,-1.1491,-1.1493,-1.1495,0,0,0,0,0,0,0,0,0,0,0,0,0,-1.1212,-1.1213,-1.1315,-1.1316,-1.1317,-1.1384,-1.1385,-1.1386,-1.1421,-1.1421,-1.1421,-1.1421,-1.1491,-1.1493,-1.1495,0,0,0,0,0,0,0,0,0,0,0,0,0,-1.1266,-1.1214,-1.1315,-1.1342,-1.1345,-1.1384,-1.1385,-1.1386,-1.1421,-1.1421,-1.1421,-1.1421,-1.149,-1.1493,-1.1495,-1.1512,0,0,-1.1504,-1.1505,0,0,0,0,0,0,0,0,-1.1263,-1.127,-1.1337,-1.134,-1.1344,-1.1394,-1.1375,-1.1429,-1.1421,-1.1392,-1.1421,-1.1421,-1.1459,-1.1464,-1.1477,-1.1515,-1.1518,-1.1504,-1.1506,-1.1507,-1.1508,0,0,0,0,0,0,0,-1.1259,-1.1267,-1.1343,-1.1338,-1.1342,-1.1351,-1.1358,-1.1385,-1.1425,-1.1395,-1.1397,-1.1405,-1.1461,-1.1474,-1.1479,-1.152,-1.1504,-1.1507,-1.1508,-1.1509,-1.1574,-1.1574,0,0,0,0,0,0,-1.1251,-1.1264,-1.134,-1.1345,-1.1303,-1.1352,-1.1361,-1.1378,-1.1424,-1.1431,-1.1405,-1.1406,-1.147,-1.1476,-1.1482,-1.1504,-1.1507,-1.151,-1.1511,-1.1574,-1.1574,-1.1574,0,0,0,0,0,0,-1.1249,-1.1258,-1.1338,-1.1305,-1.1316,-1.1354,-1.1373,-1.1379,-1.1393,-1.1432,-1.1439,-1.1412,-1.147,-1.1478,-1.1504,-1.1507,-1.1511,-1.1514,-1.1574,-1.1574,-1.1574,-1.1548,0,0,0,0,0,0,-1.1246,-1.1257,-1.1264,-1.1305,-1.1317,-1.1359,-1.1373,-1.1381,-1.1398,-1.14,-1.144,-1.1447,-1.1471,-1.15,-1.1507,-1.1511,-1.1516,-1.1574,-1.1574,-1.1574,-1.1549,-1.1547,-1.1546,0,0,0,0,0,-1.1242,-1.1254,-1.1264,-1.1273,-1.1327,-1.1359,-1.1366,-1.1393,-1.1398,-1.1405,-1.143,-1.1446,-1.1505,-1.1502,-1.151,-1.1515,-1.1574,-1.1574,-1.1574,-1.1549,-1.1547,-1.1546,0,0,0,0,0,0,-1.1213,-1.126,-1.1272,-1.1297,-1.1324,-1.1365,-1.1375,-1.139,-1.1416,-1.1418,-1.1449,-1.1458,-1.1481,-1.1501,-1.1497,-1.1533,-1.1541,-1.1542,-1.152,-1.1518,-1.1516,-1.1511,-1.1518,0,0,0,0,0,-1.1209,-1.1231,-1.1272,-1.129,-1.1303,-1.1337,-1.1352,-1.137,-1.1399,-1.141,-1.1437,-1.1464,-1.1489,-1.1504,-1.1529,-1.1551,-1.156,-1.1559,-1.1557,-1.1556,-1.1557,-1.1569,-1.1569,-1.1574,-1.1574,-1.1574,0,0,-1.1202,-1.1231,-1.1243,-1.1285,-1.1308,-1.133,-1.1346,-1.1369,-1.1385,-1.1414,-1.144,-1.146,-1.1493,-1.1517,-1.1529,-1.1534,-1.1557,-1.1556,-1.1554,-1.1556,-1.1569,-1.1569,-1.1568,-1.1574,-1.1574,-1.1574,0,0,-1.1201,-1.1225,-1.1243,-1.1265,-1.1299,-1.1321,-1.1325,-1.1364,-1.1378,-1.1405,-1.1427,-1.1446,-1.1488,-1.151,-1.1527,-1.1532,-1.1547,-1.1539,-1.1531,-1.1543,-1.1542,-1.1542,-1.1543,-1.1543,-1.154,-1.154,-1.154,0,-1.1188,-1.1222,-1.125,-1.1272,-1.1289,-1.1315,-1.1333,-1.1353,-1.1393,-1.1405,-1.141,-1.1462,-1.1486,-1.1515,-1.1516,-1.1529,-1.1534,-1.1535,-1.154,-1.154,-1.154,-1.1542,-1.1542,-1.1539,-1.1539,-1.1539,-1.1539,0,-1.1204,-1.1228,-1.1238,-1.1276,-1.1294,-1.1314,-1.1344,-1.1359,-1.1375,-1.1397,-1.1423,-1.1452,-1.1483,-1.1491,-1.1507,-1.1522,-1.1524,-1.1534,-1.1543,-1.1538,-1.154,-1.1541,-1.1537,-1.1537,-1.1538,-1.1538,0,0,-1.1188,-1.124,-1.1243,-1.126,-1.1299,-1.1317,-1.1337,-1.1367,-1.1379,-1.1406,-1.1423,-1.1457,-1.1466,-1.1485,-1.1504,-1.1514,-1.1515,-1.1523,-1.1524,-1.152,-1.1532,-1.1524,-1.1525,-1.1525,-1.1525,-1.1525,-1.1529,0,-1.1192,-1.123,-1.1254,-1.1282,-1.1303,-1.1327,-1.1345,-1.137,-1.139,-1.141,-1.1432,-1.1456,-1.1466,-1.1478,-1.1489,-1.1512,-1.1518,-1.1512,-1.1541,-1.1542,-1.1532,-1.1526,-1.1518,-1.1521,-1.153,-1.1531,-1.1531,0,-1.1202,-1.1227,-1.1257,-1.1292,-1.1302,-1.1317,-1.1346,-1.1365,-1.1394,-1.1407,-1.1427,-1.1446,-1.1468,-1.1474,-1.1503,-1.1499,-1.1512,-1.1525,-1.1526,-1.153,-1.1536,-1.153,-1.1522,-1.1522,-1.1532,-1.1532,-1.1532,0,-1.1186,-1.1228,-1.1251,-1.1264,-1.1306,-1.1316,-1.1334,-1.1362,-1.1378,-1.1403,-1.1414,-1.1441,-1.1455,-1.1476,-1.1501,-1.1503,-1.1528,-1.1536,-1.1539,-1.1539,-1.1544,-1.1543,-1.1538,-1.1552,-1.1552,-1.1552,-1.1552,0,-1.1189,-1.1206,-1.1244,-1.1258,-1.1277,-1.1305,-1.1323,-1.1343,-1.1368,-1.1386,-1.1408,-1.1424,-1.1457,-1.1477,-1.1496,-1.1517,-1.1524,-1.1535,-1.154,-1.1533,-1.1532,-1.1543,-1.1543,-1.1552,-1.1552,-1.1552,-1.1552,0,-1.1175,-1.1201,-1.1228,-1.1264,-1.1274,-1.1286,-1.1318,-1.1332,-1.1352,-1.1374,-1.1381,-1.1413,-1.1438,-1.1465,-1.1498,-1.1511,-1.1531,-1.1539,-1.1522,-1.1525,-1.1526,-1.1525,-1.1528,-1.1529,-1.1542,-1.1542,-1.1542,0,-1.1175,-1.1188,-1.1226,-1.1239,-1.1256,-1.1278,-1.1294,-1.1321,-1.1337,-1.137,-1.1379,-1.1405,-1.1428,-1.1465,-1.1492,-1.1517,-1.1525,-1.1524,-1.1529,-1.1521,-1.1525,-1.1524,-1.1525,-1.1523,-1.1523,-1.1522,-1.1522,0,-1.1171,-1.1183,-1.1205,-1.1232,-1.125,-1.1272,-1.1296,-1.1305,-1.1337,-1.1353,-1.1378,-1.1396,-1.1429,-1.1455,-1.1483,-1.1501,-1.1517,-1.152,-1.1522,-1.1515,-1.1505,-1.151,-1.1518,-1.152,-1.152,-1.1521,-1.1521,-1.1521,-1.1164,-1.1177,-1.1205,-1.1229,-1.1249,-1.1269,-1.1284,-1.1306,-1.1327,-1.1357,-1.1371,-1.1396,-1.1423,-1.1463,-1.148,-1.1499,-1.1504,-1.1507,-1.1508,-1.1509,-1.1506,-1.1501,-1.1505,-1.1505,-1.1505,-1.1505,-1.1505,0,-1.1161,-1.118,-1.1202,-1.1233,-1.1251,-1.1264,-1.129,-1.1304,-1.1326,-1.1349,-1.137,-1.1399,-1.1423,-1.145,-1.1476,-1.1486,-1.1494,-1.1492,-1.1492,-1.1495,-1.1501,-1.1496,-1.1485,-1.1485,-1.1485,-1.1485,-1.1485,-1.1485,-1.1162,-1.1184,-1.1199,-1.1231,-1.125,-1.1274,-1.1287,-1.1306,-1.1325,-1.1355,-1.1375,-1.1393,-1.1418,-1.1446,-1.1468,-1.1475,-1.1484,-1.148,-1.1489,-1.1494,-1.1495,-1.1497,-1.1493,-1.1481,-1.1481,-1.1482,-1.1482,-1.1482]}]]